STARLINK-32747, 62600

Orbit data source: Space-Track

STARLINK-32747, 62600 is a payload satellite owned by SpaceX/Seattle (US) in LEO that was launched on Mon, 13 Jan 2025 UTC via an FALCON 9 launch vehicle from the Air Force Eastern Test Range (AFETR). Payload-class satellites include a variety of spacecraft equipped with specific instruments for various scientific and technological missions. These include communications satellites like Starlink; space stations such as the ISS; scientific satellites like the Hubble; Earth observation satellites from companies like Planet Labs, Umbra, and HawkEye 360; GPS; miniature CubeSats for education and research; and military/defense satellites.

Loading next visibility...
Identifier
62600, 2025-008P
Orbit
LEO
Last TLE update
19 hours ago
Origin
Manufacturer
SpaceX/Seattle
Mission
Operational Commercial Communications
Bus & Motor
STARLINK V2M, Unknown motor
Mass
730 kg wet, ~700 kg dry
Launch date (UTC)
2025-01-13 (4 months ago)
Launch vehicle
FALCON 9
Launch site
Air Force Eastern Test Range (AFETR)
Object type
Payload
Rocket body
Debris
Shape & HBR
Box + 2 Pan, 29 m
Radar Cross Section
33.884 m², Large (>1 m²)

Expand to show TLE details & history

TLE from 19 hours ago
0 STARLINK-32747
1 62600U 25008P   25128.48572387  .00000942  00000-0  43764-4 0  9994
2 62600  42.9996 201.8793 0001622 291.3185  68.7494 15.27557785 18880
Epoch: 2025-05-08T11:39Z
Definitive object data (Epoch: 2025-05-08T11:39:26.542Z)
Latitude
0.00003°
Longitude
160.4632°
Altitude
482.488 km
Speed
7.626 km/s
True Right ascension
13h 27m 31s
True Declination
0° 00' 00"
Sunlit
Object was in full shadow at TLE epoch
Visualization TLE readout
Latitude
40.06062°
Longitude
-140.30249°
Altitude
486.359 km
Speed
7.627 km/s
Apparent Right ascension
21h 46m 10s
Apparent Declination
5° 44' 03"
Sunlit
Object is in full shadow
Visualization observer readout
Local Sidereal Time
14:56:33
Azimuth
77.593° E
Elevation
-5.729°
Doppler factor
1
Orbital elements
Apogee altitude
486.174 km
Perigee altitude
483.948 km
Semi-major axis
6,863.198 km
Eccentricity
0.0001622
Inclination
42.9996°
RAAN
201.8793°
Arg. of periapsis
291.3185°
True anomaly
68.76672°
Mean anomaly
68.7494°
Eccentric anomaly
68.75806°
Mean motion
3.81727 °/min
BSTAR
0.000043764
Orbital period
94.31 mins
Loading maneuver chart data...
Loading SW <> Apogee altitude chart data...
Loading historical data...
Loading historical data...
Loading historical data...
Loading historical data...
Loading historical data...
Loading historical data...
Loading historical data...

STARLINK-32747 Visibility forecast

Observer location: undefined°, undefined°

Span
Click to sort rows by Start time (UTC) header in descending order
Start Az.
Max El. time (UTC)
Max El. Az.
Max El.
End time (UTC)
End Az.
6 mins2025-05-09 08:16:39.945Z220.725° SW2025-05-09 08:19:39.945Z133.597° SE34.65°2025-05-09 08:22:39.945Z80.28° E
6 mins2025-05-09 09:55:39.945Z272.075° WNW2025-05-09 09:58:39.945Z26.446° NE39.555°2025-05-09 10:01:39.945Z70.433° E
5 mins2025-05-09 11:35:39.945Z299.454° NW2025-05-09 11:37:39.945Z24.786° NE39.352°2025-05-09 11:40:39.945Z85.573° E
5 mins2025-05-09 13:14:39.945Z273.372° WNW2025-05-09 13:16:39.945Z186.479° SSW39.796°2025-05-09 13:19:39.945Z127.049° SE
|